N7NKE Weather Reports


time (UTC)temp
C
wind
direction
speed
KPH
gust
KPH
rain 1hr
cm
rain 24hr
cm
rain mn
cm
humidity
%
barometer
mb
20260831034004 18 312 3.2 4.8 0.00 0.00 0.00 65 1016.0
20260831033504 18 328 3.2 8.0 0.00 0.00 0.00 65 1016.0
20260831033004 18 336 3.2 4.8 0.00 0.00 0.00 65 1016.0
20260831032504 18 324 3.2 4.8 0.00 0.00 0.00 64 1016.0
20260831032004 18 358 3.2 4.8 0.00 0.00 0.00 64 1016.0
20260831031504 18 324 3.2 4.8 0.00 0.00 0.00 64 1016.0
20260831030504 19 329 4.8 12.9 0.00 0.00 0.00 63 1016.0
20260831025504 19 331 4.8 9.7 0.00 0.00 0.00 62 1016.1
20260831025004 19 344 4.8 9.7 0.00 0.00 0.00 62 1016.1
20260831024504 19 328 6.4 12.9 0.00 0.00 0.00 62 1016.2
20260831024003 20 330 4.8 8.0 0.00 0.00 0.00 61 1016.1
20260831023504 20 333 4.8 11.3 0.00 0.00 0.00 60 1016.2
20260831023004 20 339 4.8 11.3 0.00 0.00 0.00 60 1016.2
20260831022504 20 339 6.4 16.1 0.00 0.00 0.00 60 1016.2
20260831022004 20 339 6.4 14.5 0.00 0.00 0.00 59 1016.3
20260831021504 20 349 9.7 19.3 0.00 0.00 0.00 58 1016.3
20260831021004 20 340 8.0 20.9 0.00 0.00 0.00 58 1016.3
20260831020503 20 336 9.7 14.5 0.00 0.00 0.00 57 1016.3
20260831015503 21 341 9.7 14.5 0.00 0.00 0.00 56 1016.3
20260831015004 21 336 9.7 16.1 0.00 0.00 0.00 56 1016.3
20260831014004 21 334 8.0 19.3 0.00 0.00 0.00 55 1016.4
20260831013504 21 333 9.7 20.9 0.00 0.00 0.00 55 1016.5
20260831013004 21 335 9.7 16.1 0.00 0.00 0.00 54 1016.4
20260831012504 22 347 8.0 16.1 0.00 0.00 0.00 53 1016.5
20260831012004 22 335 9.7 19.3 0.00 0.00 0.00 53 1016.5
20260831011504 22 332 8.0 16.1 0.00 0.00 0.00 52 1016.5
20260831011003 22 329 4.8 14.5 0.00 0.00 0.00 52 1016.5
20260831010005 22 340 9.7 19.3 0.00 0.00 0.00 52 1016.6
20260831005504 22 338 8.0 16.1 0.00 0.00 0.00 51 1016.7
20260831005005 22 340 8.0 14.5 0.00 0.00 0.00 51 1016.7
20260831004505 22 328 4.8 12.9 0.00 0.00 0.00 51 1016.7
20260831004006 22 332 9.7 16.1 0.00 0.00 0.00 50 1016.7
20260831003505 23 344 8.0 12.9 0.00 0.00 0.00 51 1016.7
20260831002505 23 358 8.0 12.9 0.00 0.00 0.00 50 1016.8
20260831002006 23 344 8.0 16.1 0.00 0.00 0.00 50 1016.8
20260831001505 23 350 6.4 14.5 0.00 0.00 0.00 50 1016.7
20260831001005 23 332 4.8 19.3 0.00 0.00 0.00 50 1016.7
20260831000505 23 343 9.7 14.5 0.00 0.00 0.00 49 1016.7
20260831000005 23 329 9.7 19.3 0.00 0.00 0.00 48 1016.7
20260830235505 23 347 4.8 9.7 0.00 0.00 0.00 48 1016.7
20260830235005 23 341 4.8 14.5 0.00 0.00 0.00 48 1016.8
20260830234506 23 325 3.2 14.5 0.00 0.00 0.00 48 1016.8
20260830234005 23 356 4.8 11.3 0.00 0.00 0.00 48 1016.9
20260830233505 23 337 6.4 11.3 0.00 0.00 0.00 48 1016.8
20260830233005 23 354 8.0 16.1 0.00 0.00 0.00 48 1016.9
20260830232505 23 331 8.0 14.5 0.00 0.00 0.00 47 1017.0
20260830231505 23 346 8.0 12.9 0.00 0.00 0.00 47 1017.1
20260830231005 23 21 4.8 9.7 0.00 0.00 0.00 48 1017.1
20260830230505 23 330 6.4 11.3 0.00 0.00 0.00 48 1017.2
20260830230005 23 10 4.8 12.9 0.00 0.00 0.00 47 1017.3
20260830225505 23 337 3.2 8.0 0.00 0.00 0.00 48 1017.5
20260830225005 23 340 4.8 12.9 0.00 0.00 0.00 48 1017.5
20260830223505 23 10 3.2 8.0 0.00 0.00 0.00 48 1017.6
20260830223005 22 20 3.2 11.3 0.00 0.00 0.00 48 1017.7
20260830222505 22 333 6.4 14.5 0.00 0.00 0.00 48 1017.9
20260830222005 23 351 8.0 14.5 0.00 0.00 0.00 47 1018.0
20260830221505 23 345 4.8 12.9 0.00 0.00 0.00 47 1018.0
20260830221005 22 325 4.8 11.3 0.00 0.00 0.00 48 1018.0
20260830220505 22 326 4.8 12.9 0.00 0.00 0.00 48 1018.1
20260830215505 23 30 4.8 12.9 0.00 0.00 0.00 47 1018.2
20260830215005 23 6 4.8 9.7 0.00 0.00 0.00 48 1018.3
20260830214005 22 327 3.2 12.9 0.00 0.00 0.00 49 1018.4
20260830213504 22 330 8.0 12.9 0.00 0.00 0.00 48 1018.4
20260830213005 22 326 4.8 12.9 0.00 0.00 0.00 48 1018.5
20260830212006 22 333 4.8 12.9 0.00 0.00 0.00 48 1018.7
20260830211006 22 12 3.2 11.3 0.00 0.00 0.00 49 1018.8
20260830210005 22 304 4.8 9.7 0.00 0.00 0.00 48 1018.8
20260830205505 21 319 3.2 11.3 0.00 0.00 0.00 49 1018.8
20260830205005 21 2 3.2 12.9 0.00 0.00 0.00 50 1018.9
20260830204005 21 322 4.8 8.0 0.00 0.00 0.00 49 1019.1
20260830203005 21 313 4.8 12.9 0.00 0.00 0.00 50 1019.0
20260830202504 21 273 6.4 12.9 0.00 0.00 0.00 50 1019.0
20260830202005 21 352 4.8 9.7 0.00 0.00 0.00 49 1019.1
20260830201505 21 44 8.0 14.5 0.00 0.00 0.00 49 1019.3
20260830200505 21 2 3.2 8.0 0.00 0.00 0.00 50 1019.3
20260830200005 21 44 3.2 9.7 0.00 0.00 0.00 51 1019.3
20260830195505 20 340 3.2 9.7 0.00 0.00 0.00 51 1019.4
20260830195005 20 32 3.2 8.0 0.00 0.00 0.00 52 1019.4
20260830193505 20 324 4.8 11.3 0.00 0.00 0.00 52 1019.6
20260830193005 20 344 4.8 11.3 0.00 0.00 0.00 54 1019.7
20260830192005 20 31 1.6 8.0 0.00 0.00 0.00 55 1019.9
20260830191505 20 357 3.2 12.9 0.00 0.00 0.00 55 1019.9
20260830191006 20 107 4.8 11.3 0.00 0.00 0.00 54 1019.9
20260830190505 20 30 8.0 12.9 0.00 0.00 0.00 55 1020.0
20260830190004 20 58 6.4 12.9 0.00 0.00 0.00 56 1020.0
20260830185005 19 0 1.6 12.9 0.00 0.00 0.00 56 1020.1
20260830184505 20 54 8.0 14.5 0.00 0.00 0.00 56 1020.1
20260830184005 19 9 3.2 11.3 0.00 0.00 0.00 58 1020.2
20260830183005 20 45 3.2 9.7 0.00 0.00 0.00 58 1020.2
20260830182505 19 135 3.2 9.7 0.00 0.00 0.00 58 1020.3
20260830182005 18 70 6.4 16.1 0.00 0.00 0.00 60 1020.3
20260830181505 18 3 3.2 8.0 0.00 0.00 0.00 61 1020.3
20260830181005 18 99 4.8 12.9 0.00 0.00 0.00 60 1020.2
20260830180504 18 59 4.8 11.3 0.00 0.00 0.00 61 1020.2
20260830180005 18 28 4.8 8.0 0.00 0.00 0.00 60 1020.3
20260830175505 18 357 4.8 8.0 0.00 0.00 0.00 60 1020.4
20260830175004 18 11 3.2 9.7 0.00 0.00 0.00 61 1020.4
20260830174505 18 336 3.2 4.8 0.00 0.00 0.00 61 1020.3
20260830174005 18 344 3.2 4.8 0.00 0.00 0.00 64 1020.3
20260830173505 18 355 6.4 9.7 0.00 0.00 0.00 64 1020.3
20260830173005 17 356 3.2 3.2 0.00 0.00 0.00 65 1020.3
20260830172005 18 37 3.2 9.7 0.00 0.00 0.00 65 1020.3
20260830171504 17 86 4.8 11.3 0.00 0.00 0.00 66 1020.3
20260830171005 17 352 3.2 4.8 0.00 0.00 0.00 68 1020.4
20260830170505 17 101 1.6 3.2 0.00 0.00 0.00 68 1020.5
20260830170005 17 76 4.8 8.0 0.00 0.00 0.00 68 1020.5
20260830165005 16 91 3.2 3.2 0.00 0.00 0.00 70 1020.5
20260830164005 16 131 1.6 3.2 0.00 0.00 0.00 73 1020.6
20260830163505 15 36 1.6 3.2 0.00 0.00 0.00 74 1020.7
20260830163005 15 165 1.6 3.2 0.00 0.00 0.00 74 1020.7
20260830162505 15 150 1.6 3.2 0.00 0.00 0.00 75 1020.6
20260830161505 15 126 1.6 4.8 0.00 0.00 0.00 76 1020.7
20260830160505 14 93 3.2 4.8 0.00 0.00 0.00 77 1020.7
20260830160005 13 111 1.6 4.8 0.00 0.00 0.00 79 1020.8
20260830155505 13 121 1.6 3.2 0.00 0.00 0.00 79 1020.9
20260830155005 13 108 1.6 3.2 0.00 0.00 0.00 81 1021.0
20260830154505 12 32 1.6 3.2 0.00 0.00 0.00 82 1021.0
20260830153505 12 72 0.0 3.2 0.00 0.00 0.00 84 1021.1
20260830153005 12 86 0.0 3.2 0.00 0.00 0.00 85 1021.0
20260830152504 11 110 1.6 3.2 0.00 0.00 0.00 86 1021.0
20260830152005 11 96 1.6 3.2 0.00 0.00 0.00 87 1021.1
20260830151505 11 44 0.0 3.2 0.00 0.00 0.00 87 1020.9
20260830151005 10 41 1.6 3.2 0.00 0.00 0.00 88 1021.0
20260830150505 10 66 1.6 3.2 0.00 0.00 0.00 89 1021.0
20260830150005 10 146 1.6 3.2 0.00 0.00 0.00 90 1021.0
20260830145506 10 155 0.0 0.0 0.00 0.00 0.00 90 1021.0
20260830144505 9 155 1.6 3.2 0.00 0.00 0.00 90 1021.1
20260830144005 9 157 0.0 1.6 0.00 0.00 0.00 90 1021.1
20260830143504 9 155 0.0 3.2 0.00 0.00 0.00 90 1021.1
20260830142504 8 155 0.0 3.2 0.00 0.00 0.00 90 1021.0
20260830142005 8 167 0.0 0.0 0.00 0.00 0.00 90 1021.0
20260830141505 8 167 0.0 0.0 0.00 0.00 0.00 90 1020.9
20260830141005 8 167 1.6 4.8 0.00 0.00 0.00 90 1020.9
20260830140505 7 167 0.0 1.6 0.00 0.00 0.00 89 1021.0
20260830140005 7 167 0.0 0.0 0.00 0.00 0.00 89 1021.1
20260830135505 7 167 0.0 0.0 0.00 0.00 0.00 89 1021.1
20260830135005 7 167 0.0 1.6 0.00 0.00 0.00 89 1021.0
20260830134505 7 167 0.0 4.8 0.00 0.00 0.00 89 1020.9
20260830134005 7 166 0.0 0.0 0.00 0.00 0.00 89 1020.9
20260830133505 7 166 0.0 0.0 0.00 0.00 0.00 89 1020.9
20260830132504 8 166 0.0 0.0 0.00 0.00 0.00 89 1020.8
20260830132005 8 166 1.6 4.8 0.00 0.00 0.00 89 1020.8
20260830131505 8 181 0.0 3.2 0.00 0.00 0.00 89 1020.7
20260830131005 8 180 3.2 3.2 0.00 0.00 0.00 89 1020.6
20260830130505 8 208 1.6 3.2 0.00 0.00 0.00 89 1020.6
20260830130005 8 217 1.6 3.2 0.00 0.00 0.00 89 1020.6
20260830125504 8 217 0.0 3.2 0.00 0.00 0.00 89 1020.7
20260830125004 8 217 0.0 0.0 0.00 0.00 0.00 89 1020.7
20260830123505 8 217 0.0 1.6 0.00 0.00 0.00 88 1020.7
20260830122505 8 217 0.0 0.0 0.00 0.00 0.00 88 1020.5
20260830122005 8 217 0.0 0.0 0.00 0.00 0.00 88 1020.5
20260830121005 9 217 0.0 1.6 0.00 0.00 0.00 89 1020.5
20260830120505 9 217 0.0 3.2 0.00 0.00 0.00 89 1020.5
20260830115504 9 217 0.0 0.0 0.00 0.00 0.00 89 1020.4
20260830115004 8 217 0.0 0.0 0.00 0.00 0.00 88 1020.4
20260830114505 8 217 0.0 1.6 0.00 0.00 0.00 88 1020.4
20260830114005 9 217 0.0 1.6 0.00 0.00 0.00 88 1020.5
20260830113504 9 217 1.6 1.6 0.00 0.00 0.00 88 1020.4
20260830113004 9 217 1.6 3.2 0.00 0.00 0.00 88 1020.4
20260830112505 9 178 1.6 1.6 0.00 0.00 0.00 88 1020.5
20260830112005 9 178 1.6 3.2 0.00 0.00 0.00 88 1020.5
20260830111505 9 158 1.6 3.2 0.00 0.00 0.00 88 1020.6
20260830111005 9 183 1.6 3.2 0.00 0.00 0.00 88 1020.6
20260830110505 9 199 1.6 3.2 0.00 0.00 0.00 87 1020.5
20260830110005 9 199 1.6 1.6 0.00 0.00 0.00 87 1020.5
20260830105505 9 199 0.0 1.6 0.00 0.00 0.00 87 1020.5
20260830105005 9 199 0.0 3.2 0.00 0.00 0.00 87 1020.4
20260830104005 10 244 0.0 3.2 0.00 0.00 0.00 87 1020.4
20260830103505 10 244 0.0 3.2 0.00 0.00 0.00 87 1020.4
20260830103005 10 244 0.0 3.2 0.00 0.00 0.00 86 1020.4
20260830102504 10 244 0.0 3.2 0.00 0.00 0.00 87 1020.3
20260830102005 10 234 1.6 3.2 0.00 0.00 0.00 87 1020.2
20260830101505 10 234 3.2 3.2 0.00 0.00 0.00 87 1020.3
20260830101005 10 234 1.6 3.2 0.00 0.00 0.00 87 1020.2
20260830100504 10 234 3.2 3.2 0.00 0.00 0.00 87 1020.3
20260830095505 10 232 3.2 3.2 0.00 0.00 0.00 86 1020.4
20260830095005 10 232 3.2 3.2 0.00 0.00 0.00 86 1020.3
20260830094504 10 235 3.2 3.2 0.00 0.00 0.00 86 1020.4
20260830092005 10 232 1.6 3.2 0.00 0.00 0.00 86 1020.2
20260830091505 10 236 3.2 4.8 0.00 0.00 0.00 86 1020.3
20260830091004 10 236 1.6 3.2 0.00 0.00 0.00 86 1020.3
20260830090504 10 236 3.2 3.2 0.00 0.00 0.00 86 1020.3
20260830090005 10 238 1.6 3.2 0.00 0.00 0.00 85 1020.4
20260830085505 10 238 0.0 0.0 0.00 0.00 0.00 85 1020.4
20260830085004 10 238 0.0 0.0 0.00 0.00 0.00 85 1020.4
20260830084504 10 238 0.0 0.0 0.00 0.00 0.00 85 1020.4
20260830084005 10 238 0.0 0.0 0.00 0.00 0.00 85 1020.4
20260830083504 10 238 0.0 0.0 0.00 0.00 0.00 84 1020.5
20260830083005 11 238 0.0 0.0 0.00 0.00 0.00 84 1020.6
20260830082005 11 238 0.0 0.0 0.00 0.00 0.00 84 1020.5
20260830081504 11 238 0.0 0.0 0.00 0.00 0.00 83 1020.5
20260830081005 11 238 0.0 0.0 0.00 0.00 0.00 83 1020.5
20260830080504 11 238 0.0 0.0 0.00 0.00 0.00 83 1020.4
20260830080004 11 238 0.0 0.0 0.00 0.00 0.00 83 1020.4
20260830075504 11 238 0.0 0.0 0.00 0.00 0.00 82 1020.4
20260830075004 11 238 0.0 0.0 0.00 0.00 0.00 82 1020.4
20260830074505 11 238 0.0 0.0 0.00 0.00 0.00 82 1020.3
20260830074004 11 238 0.0 0.0 0.00 0.00 0.00 82 1020.4
20260830073504 11 238 0.0 0.0 0.00 0.00 0.00 81 1020.3
20260830073005 11 238 0.0 0.0 0.00 0.00 0.00 81 1020.4
20260830072504 11 238 0.0 0.0 0.00 0.00 0.00 80 1020.4
20260830072004 11 238 0.0 0.0 0.00 0.00 0.00 80 1020.3
20260830071504 11 238 0.0 0.0 0.00 0.00 0.00 79 1020.4
20260830071005 12 238 0.0 0.0 0.00 0.00 0.00 80 1020.4
20260830070504 12 238 0.0 0.0 0.00 0.00 0.00 80 1020.3
20260830070005 12 238 0.0 0.0 0.00 0.00 0.00 80 1020.3
20260830065505 12 238 0.0 0.0 0.00 0.00 0.00 80 1020.3
20260830065005 12 238 0.0 0.0 0.00 0.00 0.00 80 1020.3
20260830064504 12 238 0.0 0.0 0.00 0.00 0.00 78 1020.3
20260830063505 12 238 0.0 0.0 0.00 0.00 0.00 77 1020.2
20260830063005 12 238 0.0 0.0 0.00 0.00 0.00 76 1020.2
20260830062504 12 238 0.0 0.0 0.00 0.00 0.00 76 1020.2
20260830062004 12 238 0.0 0.0 0.00 0.00 0.00 76 1020.2
20260830060505 13 238 1.6 3.2 0.00 0.00 0.00 74 1020.2
20260830060005 13 238 0.0 3.2 0.00 0.00 0.00 74 1020.2
20260830055505 13 238 1.6 3.2 0.00 0.00 0.00 73 1020.2
20260830055004 13 228 1.6 3.2 0.00 0.00 0.00 72 1020.3
20260830054505 13 178 0.0 1.6 0.00 0.00 0.00 71 1020.3
20260830053505 14 109 1.6 3.2 0.00 0.00 0.00 70 1020.2
20260830053005 15 119 0.0 1.6 0.00 0.00 0.00 69 1020.2
20260830052504 15 119 1.6 3.2 0.00 0.00 0.00 68 1020.2
20260830051504 15 95 3.2 8.0 0.00 0.00 0.00 67 1020.1
20260830051005 15 106 4.8 8.0 0.00 0.00 0.00 66 1020.0
20260830045005 15 341 3.2 8.0 0.00 0.00 0.00 65 1019.9
20260830044505 15 349 4.8 9.7 0.00 0.00 0.00 65 1019.9
20260830044005 15 351 4.8 9.7 0.00 0.00 0.00 65 1019.8
20260830043504 15 342 4.8 9.7 0.00 0.00 0.00 65 1019.8
20260830043005 15 344 4.8 8.0 0.00 0.00 0.00 65 1019.8
20260830042004 15 326 4.8 8.0 0.00 0.00 0.00 67 1019.8
20260830041504 15 327 4.8 8.0 0.00 0.00 0.00 67 1019.8
20260830041005 15 268 1.6 3.2 0.00 0.00 0.00 66 1019.7
20260830040505 15 47 1.6 1.6 0.00 0.00 0.00 66 1019.7
20260830040004 15 47 1.6 3.2 0.00 0.00 0.00 65 1019.6
20260830035004 16 20 1.6 3.2 0.00 0.00 0.00 63 1019.5
20260830034505 16 53 1.6 3.2 0.00 0.00 0.00 62 1019.6